Time,TemperatureF,DewpointF,PressureIn,WindDirection,WindDirectionDegrees,WindSpeedMPH,WindSpeedGustMPH,Humidity,HourlyPrecipIn,Conditions,Clouds,dailyrainin,SolarRadiationWatts/m^2,SoftwareType,DateUTC
2013-05-13 00:01:00,44.3,33.3,30.00,NW,310,0.0,0.0,65,0.00,,,0.00,0.00,VWS V14.01,2013-05-13 04:01:00,
2013-05-13 00:02:00,44.3,33.3,30.00,NW,311,0.0,0.0,65,0.00,,,0.00,0.00,VWS V14.01,2013-05-13 04:02:00,
2013-05-13 00:07:00,44.0,33.4,30.00,NW,311,0.0,0.0,66,0.00,,,0.00,0.00,VWS V14.01,2013-05-13 04:07:00,
2013-05-13 00:12:00,43.7,33.8,29.99,NW,311,0.0,0.0,68,0.00,,,0.00,0.00,VWS V14.01,2013-05-13 04:12:00,
2013-05-13 00:17:00,43.4,33.6,29.99,NW,310,0.0,0.0,68,0.00,,,0.00,0.00,VWS V14.01,2013-05-13 04:17:00,
2013-05-13 00:22:00,43.3,33.5,30.00,NW,310,0.0,0.0,68,0.00,,,0.00,0.00,VWS V14.01,2013-05-13 04:22:00,
2013-05-13 00:27:00,43.0,33.5,30.00,NW,310,0.0,0.0,69,0.00,,,0.00,0.00,VWS V14.01,2013-05-13 04:27:00,
2013-05-13 00:32:00,42.8,33.3,30.00,NW,311,1.0,1.0,69,0.00,,,0.00,0.00,VWS V14.01,2013-05-13 04:32:00,
2013-05-13 00:37:00,42.6,33.2,30.00,NW,311,0.0,0.0,69,0.00,,,0.00,0.00,VWS V14.01,2013-05-13 04:37:00,
2013-05-13 00:42:00,42.6,32.8,30.00,NW,310,0.0,2.0,68,0.00,,,0.00,0.00,VWS V14.01,2013-05-13 04:42:00,
2013-05-13 00:48:00,42.7,32.5,30.01,WNW,284,1.0,2.0,67,0.00,,,0.00,0.00,VWS V14.01,2013-05-13 04:48:00,
2013-05-13 00:53:00,42.9,32.3,30.01,West,278,0.0,2.0,66,0.00,,,0.00,0.00,VWS V14.01,2013-05-13 04:53:00,
2013-05-13 00:58:00,43.2,32.6,30.01,West,278,0.0,1.0,66,0.00,,,0.00,0.00,VWS V14.01,2013-05-13 04:58:00,
2013-05-13 01:03:00,43.4,32.4,30.01,WSW,246,0.0,2.0,65,0.00,,,0.00,0.00,VWS V14.01,2013-05-13 05:03:00,
2013-05-13 01:08:00,43.7,32.3,30.00,WSW,245,0.0,0.0,64,0.00,,,0.00,0.00,VWS V14.01,2013-05-13 05:08:00,
2013-05-13 01:13:00,43.9,32.1,30.01,WSW,245,0.0,0.0,63,0.00,,,0.00,0.00,VWS V14.01,2013-05-13 05:13:00,
2013-05-13 01:18:00,44.1,32.3,30.01,WSW,245,0.0,0.0,63,0.00,,,0.00,0.00,VWS V14.01,2013-05-13 05:18:00,
2013-05-13 01:23:00,44.1,32.3,30.00,WSW,246,0.0,0.0,63,0.00,,,0.00,0.00,VWS V14.01,2013-05-13 05:23:00,
2013-05-13 01:28:00,44.2,32.4,30.00,WSW,246,0.0,0.0,63,0.00,,,0.00,0.00,VWS V14.01,2013-05-13 05:28:00,
2013-05-13 01:33:00,44.2,32.0,30.00,WSW,245,0.0,0.0,62,0.00,,,0.00,0.00,VWS V14.01,2013-05-13 05:33:00,
2013-05-13 01:38:00,44.2,32.0,30.00,WSW,246,0.0,0.0,62,0.00,,,0.00,0.00,VWS V14.01,2013-05-13 05:38:00,
2013-05-13 01:44:00,44.1,31.9,30.00,WSW,246,0.0,0.0,62,0.00,,,0.00,0.00,VWS V14.01,2013-05-13 05:44:00,
2013-05-13 01:49:00,44.1,31.9,30.00,WSW,245,0.0,0.0,62,0.00,,,0.00,0.00,VWS V14.01,2013-05-13 05:49:00,
2013-05-13 01:54:00,44.0,32.2,30.00,WSW,246,0.0,0.0,63,0.00,,,0.00,0.00,VWS V14.01,2013-05-13 05:54:00,
2013-05-13 01:59:00,43.9,32.1,30.00,WSW,246,0.0,1.0,63,0.00,,,0.00,0.00,VWS V14.01,2013-05-13 05:59:00,
2013-05-13 02:04:00,43.8,32.4,30.00,WSW,246,0.0,1.0,64,0.00,,,0.00,0.00,VWS V14.01,2013-05-13 06:04:00,
2013-05-13 02:09:00,43.7,32.3,30.00,WSW,246,0.0,0.0,64,0.00,,,0.00,0.00,VWS V14.01,2013-05-13 06:09:00,
2013-05-13 02:14:00,43.7,32.3,30.00,WSW,246,0.0,0.0,64,0.00,,,0.00,0.00,VWS V14.01,2013-05-13 06:14:00,
2013-05-13 02:19:00,43.7,32.3,30.00,WSW,245,0.0,0.0,64,0.00,,,0.00,0.00,VWS V14.01,2013-05-13 06:19:00,
2013-05-13 02:24:00,43.6,32.6,30.00,WSW,245,0.0,1.0,65,0.00,,,0.00,0.00,VWS V14.01,2013-05-13 06:24:00,
2013-05-13 02:29:00,43.5,32.9,30.00,WSW,245,2.0,2.0,66,0.00,,,0.00,0.00,VWS V14.01,2013-05-13 06:29:00,
2013-05-13 02:34:00,43.3,33.8,29.99,WSW,246,0.0,0.0,69,0.00,,,0.00,0.00,VWS V14.01,2013-05-13 06:34:00,
2013-05-13 02:40:00,43.2,34.1,29.99,WSW,246,0.0,1.0,70,0.00,,,0.00,0.00,VWS V14.01,2013-05-13 06:40:00,
2013-05-13 02:45:00,42.9,34.2,29.99,WSW,245,0.0,0.0,71,0.00,,,0.00,0.00,VWS V14.01,2013-05-13 06:45:00,
2013-05-13 02:50:00,42.6,34.6,30.00,WSW,245,0.0,0.0,73,0.00,,,0.00,0.00,VWS V14.01,2013-05-13 06:50:00,
2013-05-13 02:55:00,42.4,34.7,30.00,WSW,246,0.0,0.0,74,0.00,,,0.00,0.00,VWS V14.01,2013-05-13 06:55:00,
2013-05-13 03:00:00,42.1,34.4,30.00,WSW,246,0.0,0.0,74,0.00,,,0.00,0.00,VWS V14.01,2013-05-13 07:00:00,
2013-05-13 03:05:00,41.8,34.1,30.00,WSW,246,0.0,0.0,74,0.00,,,0.00,0.00,VWS V14.01,2013-05-13 07:05:00,
2013-05-13 03:10:00,41.4,34.4,30.00,WSW,246,0.0,0.0,76,0.00,,,0.00,0.00,VWS V14.01,2013-05-13 07:10:00,
2013-05-13 03:15:00,41.1,34.5,30.01,WSW,245,0.0,0.0,77,0.00,,,0.00,0.00,VWS V14.01,2013-05-13 07:15:00,
2013-05-13 03:20:00,40.8,34.5,30.01,WSW,245,0.0,0.0,78,0.00,,,0.00,0.00,VWS V14.01,2013-05-13 07:20:00,
2013-05-13 03:25:00,40.5,34.5,30.01,WSW,245,0.0,0.0,79,0.00,,,0.00,0.00,VWS V14.01,2013-05-13 07:25:00,
2013-05-13 03:30:00,40.2,34.5,30.01,WSW,246,1.0,2.0,80,0.00,,,0.00,0.00,VWS V14.01,2013-05-13 07:30:00,
2013-05-13 03:36:00,40.0,34.3,30.01,WSW,246,0.0,0.0,80,0.00,,,0.00,0.00,VWS V14.01,2013-05-13 07:36:00,
2013-05-13 03:41:00,39.9,34.5,30.01,WSW,240,0.0,0.0,81,0.00,,,0.00,0.00,VWS V14.01,2013-05-13 07:41:00,
2013-05-13 03:46:00,39.8,34.5,30.01,ESE,123,0.0,3.0,81,0.00,,,0.00,0.00,VWS V14.01,2013-05-13 07:46:00,
2013-05-13 03:51:00,39.9,34.2,30.02,SE,135,0.0,0.0,80,0.00,,,0.00,0.00,VWS V14.01,2013-05-13 07:51:00,
2013-05-13 03:56:00,40.0,34.3,30.02,SE,135,0.0,0.0,80,0.00,,,0.00,0.00,VWS V14.01,2013-05-13 07:56:00,
2013-05-13 04:01:00,40.1,34.4,30.02,SE,138,0.0,2.0,80,0.00,,,0.00,0.00,VWS V14.01,2013-05-13 08:01:00,
2013-05-13 04:06:00,40.1,34.1,30.02,SE,139,0.0,0.0,79,0.00,,,0.00,0.00,VWS V14.01,2013-05-13 08:06:00,
2013-05-13 04:11:00,40.1,34.1,30.02,SE,139,0.0,0.0,79,0.00,,,0.00,0.00,VWS V14.01,2013-05-13 08:11:00,
2013-05-13 04:16:00,40.2,33.9,30.01,SE,138,0.0,0.0,78,0.00,,,0.00,0.00,VWS V14.01,2013-05-13 08:16:00,
2013-05-13 04:21:00,40.2,33.9,30.01,SE,139,0.0,0.0,78,0.00,,,0.00,0.00,VWS V14.01,2013-05-13 08:21:00,
2013-05-13 04:26:00,40.2,33.9,30.01,SE,139,0.0,1.0,78,0.00,,,0.00,0.00,VWS V14.01,2013-05-13 08:26:00,
2013-05-13 04:31:00,40.2,33.6,30.01,NW,325,0.0,2.0,77,0.00,,,0.00,0.00,VWS V14.01,2013-05-13 08:31:00,
2013-05-13 04:37:00,40.8,33.2,30.01,NNW,329,2.0,4.0,74,0.00,,,0.00,0.00,VWS V14.01,2013-05-13 08:37:00,
2013-05-13 04:42:00,41.8,32.8,30.01,NW,310,5.0,14.0,70,0.00,,,0.00,0.00,VWS V14.01,2013-05-13 08:42:00,
2013-05-13 04:47:00,42.9,32.7,30.01,NNW,328,0.0,2.0,67,0.00,,,0.00,0.00,VWS V14.01,2013-05-13 08:47:00,
2013-05-13 04:52:00,43.4,32.8,30.01,NW,322,4.0,4.0,66,0.00,,,0.00,0.00,VWS V14.01,2013-05-13 08:52:00,
2013-05-13 04:57:00,43.8,32.4,30.01,WNW,290,0.0,3.0,64,0.00,,,0.00,0.00,VWS V14.01,2013-05-13 08:57:00,
2013-05-13 05:02:00,44.1,32.3,30.01,NW,309,3.0,4.0,63,0.00,,,0.00,0.00,VWS V14.01,2013-05-13 09:02:00,
2013-05-13 05:07:00,44.3,32.5,30.01,NW,315,1.0,3.0,63,0.00,,,0.00,0.00,VWS V14.01,2013-05-13 09:07:00,
2013-05-13 05:12:00,44.5,32.3,30.01,NNW,338,4.0,5.0,62,0.00,,,0.00,0.00,VWS V14.01,2013-05-13 09:12:00,
2013-05-13 05:17:00,44.6,32.0,30.01,NNW,342,2.0,4.0,61,0.00,,,0.00,0.00,VWS V14.01,2013-05-13 09:17:00,
2013-05-13 05:22:00,44.6,31.6,30.01,NW,319,0.0,3.0,60,0.00,,,0.00,0.00,VWS V14.01,2013-05-13 09:22:00,
2013-05-13 05:27:00,44.7,31.7,30.01,NW,325,0.0,3.0,60,0.00,,,0.00,0.00,VWS V14.01,2013-05-13 09:27:00,
2013-05-13 05:32:00,44.7,31.7,30.02,NW,325,0.0,0.0,60,0.00,,,0.00,0.00,VWS V14.01,2013-05-13 09:32:00,
2013-05-13 05:38:00,44.7,31.7,30.02,NW,325,0.0,0.0,60,0.00,,,0.00,0.00,VWS V14.01,2013-05-13 09:38:00,
2013-05-13 05:43:00,44.6,31.6,30.02,NW,325,0.0,0.0,60,0.00,,,0.00,0.00,VWS V14.01,2013-05-13 09:43:00,
2013-05-13 05:48:00,44.4,31.8,30.02,NW,325,0.0,0.0,61,0.00,,,0.00,0.00,VWS V14.01,2013-05-13 09:48:00,
2013-05-13 05:53:00,44.3,32.5,30.02,NW,325,0.0,0.0,63,0.00,,,0.00,0.00,VWS V14.01,2013-05-13 09:53:00,
2013-05-13 05:58:00,44.0,32.6,30.03,NNW,327,0.0,1.0,64,0.00,,,0.00,0.00,VWS V14.01,2013-05-13 09:58:00,
2013-05-13 06:03:00,43.6,31.9,30.03,NNW,329,0.0,1.0,63,0.00,,,0.00,0.00,VWS V14.01,2013-05-13 10:03:00,
2013-05-13 06:08:00,43.4,32.0,30.03,NNW,329,0.0,0.0,64,0.00,,,0.00,5.00,VWS V14.01,2013-05-13 10:08:00,
2013-05-13 06:13:00,43.3,32.0,30.03,NNW,329,0.0,0.0,64,0.00,,,0.00,11.00,VWS V14.01,2013-05-13 10:13:00,
2013-05-13 06:18:00,43.1,31.8,30.03,NNW,329,0.0,0.0,64,0.00,,,0.00,16.00,VWS V14.01,2013-05-13 10:18:00,
2013-05-13 06:23:00,42.9,31.2,30.03,NNW,329,0.0,3.0,63,0.00,,,0.00,21.00,VWS V14.01,2013-05-13 10:23:00,
2013-05-13 06:28:00,42.9,31.2,30.03,NNW,329,1.0,1.0,63,0.00,,,0.00,26.00,VWS V14.01,2013-05-13 10:28:00,
2013-05-13 06:33:00,43.1,31.4,30.03,ESE,114,0.0,1.0,63,0.00,,,0.00,32.00,VWS V14.01,2013-05-13 10:33:00,
2013-05-13 06:39:00,43.2,31.5,30.03,ESE,111,0.0,0.0,63,0.00,,,0.00,40.00,VWS V14.01,2013-05-13 10:39:00,
2013-05-13 06:44:00,43.3,31.6,30.03,ESE,111,0.0,0.0,63,0.00,,,0.00,47.00,VWS V14.01,2013-05-13 10:44:00,
2013-05-13 06:49:00,43.4,31.7,30.04,ESE,111,0.0,0.0,63,0.00,,,0.00,53.00,VWS V14.01,2013-05-13 10:49:00,
2013-05-13 06:54:00,43.5,32.2,30.04,ESE,111,0.0,0.0,64,0.00,,,0.00,62.00,VWS V14.01,2013-05-13 10:54:00,
2013-05-13 06:59:00,43.5,32.2,30.04,ESE,111,0.0,0.0,64,0.00,,,0.00,70.00,VWS V14.01,2013-05-13 10:59:00,
2013-05-13 07:04:00,43.6,33.0,30.04,ESE,111,0.0,0.0,66,0.00,,,0.00,81.00,VWS V14.01,2013-05-13 11:04:00,
2013-05-13 07:09:00,43.6,34.1,30.05,ESE,111,0.0,0.0,69,0.00,,,0.00,90.00,VWS V14.01,2013-05-13 11:09:00,
2013-05-13 07:14:00,43.7,34.6,30.05,ESE,111,0.0,0.0,70,0.00,,,0.00,98.00,VWS V14.01,2013-05-13 11:14:00,
2013-05-13 07:19:00,43.7,34.2,30.05,ESE,111,0.0,0.0,69,0.00,,,0.00,109.00,VWS V14.01,2013-05-13 11:19:00,
2013-05-13 07:24:00,43.7,34.2,30.05,ESE,111,0.0,0.0,69,0.00,,,0.00,118.00,VWS V14.01,2013-05-13 11:24:00,
2013-05-13 07:29:00,43.8,34.3,30.05,ESE,111,0.0,0.0,69,0.00,,,0.00,132.00,VWS V14.01,2013-05-13 11:29:00,
2013-05-13 07:35:00,43.9,34.4,30.05,ESE,111,0.0,0.0,69,0.00,,,0.00,141.00,VWS V14.01,2013-05-13 11:35:00,
2013-05-13 07:40:00,44.1,34.2,30.05,ESE,111,0.0,0.0,68,0.00,,,0.00,148.00,VWS V14.01,2013-05-13 11:40:00,
2013-05-13 07:45:00,44.3,34.4,30.06,ESE,111,0.0,0.0,68,0.00,,,0.00,160.00,VWS V14.01,2013-05-13 11:45:00,
2013-05-13 07:50:00,44.6,33.2,30.06,NNW,338,0.0,4.0,64,0.00,,,0.00,171.00,VWS V14.01,2013-05-13 11:50:00,
2013-05-13 07:55:00,45.0,33.6,30.06,NNW,338,0.0,1.0,64,0.00,,,0.00,171.00,VWS V14.01,2013-05-13 11:55:00,
2013-05-13 08:00:00,45.8,34.7,30.06,NNW,337,0.0,1.0,65,0.00,,,0.00,171.00,VWS V14.01,2013-05-13 12:00:00,
2013-05-13 08:05:00,46.2,33.5,30.06,NNW,338,0.0,4.0,61,0.00,,,0.00,172.00,VWS V14.01,2013-05-13 12:05:00,
2013-05-13 08:10:00,46.4,32.9,30.07,NW,319,0.0,5.0,59,0.00,,,0.00,176.00,VWS V14.01,2013-05-13 12:10:00,
2013-05-13 08:15:00,46.7,33.6,30.07,NW,323,1.0,2.0,60,0.00,,,0.00,185.00,VWS V14.01,2013-05-13 12:15:00,
2013-05-13 08:20:00,46.7,33.2,30.07,NNW,346,1.0,4.0,59,0.00,,,0.00,195.00,VWS V14.01,2013-05-13 12:20:00,
2013-05-13 08:25:00,46.8,33.2,30.07,NW,325,2.0,5.0,59,0.00,,,0.00,202.00,VWS V14.01,2013-05-13 12:25:00,
2013-05-13 08:30:00,46.9,34.2,30.07,NW,318,2.0,5.0,61,0.00,,,0.00,218.00,VWS V14.01,2013-05-13 12:30:00,
2013-05-13 08:35:00,47.0,33.8,30.08,NW,324,2.0,6.0,60,0.00,,,0.00,227.00,VWS V14.01,2013-05-13 12:35:00,
2013-05-13 08:40:00,47.0,33.4,30.08,NNW,336,0.0,6.0,59,0.00,,,0.00,243.00,VWS V14.01,2013-05-13 12:40:00,
2013-05-13 08:45:00,47.2,33.6,30.08,NW,321,0.0,8.0,59,0.00,,,0.00,309.00,VWS V14.01,2013-05-13 12:45:00,
2013-05-13 08:50:00,47.4,33.0,30.09,NNW,341,4.0,10.0,57,0.00,,,0.00,302.00,VWS V14.01,2013-05-13 12:50:00,
2013-05-13 08:55:00,47.4,32.1,30.09,WNW,298,3.0,10.0,55,0.00,,,0.00,313.00,VWS V14.01,2013-05-13 12:55:00,
2013-05-13 09:00:00,47.5,32.2,30.09,NNW,345,7.0,11.0,55,0.00,,,0.00,353.00,VWS V14.01,2013-05-13 13:00:00,
2013-05-13 09:05:00,47.6,31.8,30.09,NW,318,3.0,11.0,54,0.00,,,0.00,424.00,VWS V14.01,2013-05-13 13:05:00,
2013-05-13 09:10:00,47.8,31.5,30.09,NNW,338,6.0,12.0,53,0.00,,,0.00,410.00,VWS V14.01,2013-05-13 13:10:00,
2013-05-13 09:15:00,47.9,32.1,30.09,West,259,0.0,10.0,54,0.00,,,0.00,492.00,VWS V14.01,2013-05-13 13:15:00,
2013-05-13 09:20:00,48.5,32.6,30.09,NNW,346,6.0,7.0,54,0.00,,,0.00,432.00,VWS V14.01,2013-05-13 13:20:00,
2013-05-13 09:25:00,48.5,31.7,30.09,NW,322,3.0,15.0,52,0.00,,,0.00,434.00,VWS V14.01,2013-05-13 13:25:00,
2013-05-13 09:30:00,48.6,31.3,30.09,NNW,344,11.0,12.0,51,0.00,,,0.00,475.00,VWS V14.01,2013-05-13 13:30:00,
2013-05-13 09:35:00,48.4,31.6,30.09,WNW,298,1.0,17.0,52,0.00,,,0.00,487.00,VWS V14.01,2013-05-13 13:35:00,
2013-05-13 09:40:00,48.5,30.7,30.09,NNW,330,6.0,11.0,50,0.00,,,0.00,501.00,VWS V14.01,2013-05-13 13:40:00,
2013-05-13 09:45:00,48.8,32.4,30.09,NNW,340,12.0,13.0,53,0.00,,,0.00,466.00,VWS V14.01,2013-05-13 13:45:00,
2013-05-13 09:50:00,48.7,30.9,30.09,NNW,343,4.0,14.0,50,0.00,,,0.00,543.00,VWS V14.01,2013-05-13 13:50:00,
2013-05-13 09:55:00,49.1,32.7,30.09,NNW,332,7.0,9.0,53,0.00,,,0.00,501.00,VWS V14.01,2013-05-13 13:55:00,
2013-05-13 10:00:00,49.4,32.0,30.09,SW,230,2.0,9.0,51,0.00,,,0.00,503.00,VWS V14.01,2013-05-13 14:00:00,
2013-05-13 10:05:00,50.1,33.2,30.09,WNW,300,3.0,8.0,52,0.00,,,0.00,541.00,VWS V14.01,2013-05-13 14:05:00,
2013-05-13 10:10:00,50.5,33.1,30.09,North,350,2.0,5.0,51,0.00,,,0.00,540.00,VWS V14.01,2013-05-13 14:10:00,
2013-05-13 10:16:00,50.9,32.9,30.09,NW,311,10.0,12.0,50,0.00,,,0.00,561.00,VWS V14.01,2013-05-13 14:16:00,
2013-05-13 10:21:00,50.7,31.7,30.09,NW,324,7.0,9.0,48,0.00,,,0.00,578.00,VWS V14.01,2013-05-13 14:21:00,
2013-05-13 10:26:00,50.4,31.5,30.09,WNW,302,5.0,7.0,48,0.00,,,0.00,598.00,VWS V14.01,2013-05-13 14:26:00,
2013-05-13 10:31:00,50.2,31.3,30.09,NNW,338,11.0,13.0,48,0.00,,,0.00,575.00,VWS V14.01,2013-05-13 14:31:00,
2013-05-13 10:36:00,50.2,32.3,30.09,WNW,298,5.0,7.0,50,0.00,,,0.00,675.00,VWS V14.01,2013-05-13 14:36:00,
2013-05-13 10:41:00,50.7,32.8,30.09,North,349,2.0,6.0,50,0.00,,,0.00,698.00,VWS V14.01,2013-05-13 14:41:00,
2013-05-13 10:46:00,50.8,33.8,30.09,NW,317,5.0,5.0,52,0.00,,,0.00,687.00,VWS V14.01,2013-05-13 14:46:00,
2013-05-13 10:51:00,51.4,33.9,30.09,NNW,342,4.0,9.0,51,0.00,,,0.00,636.00,VWS V14.01,2013-05-13 14:51:00,
2013-05-13 10:56:00,51.3,32.3,30.09,WNW,300,1.0,5.0,48,0.00,,,0.00,167.00,VWS V14.01,2013-05-13 14:56:00,
2013-05-13 11:01:00,51.5,32.0,30.09,NNW,332,3.0,7.0,47,0.00,,,0.00,680.00,VWS V14.01,2013-05-13 15:01:00,
2013-05-13 11:06:00,51.9,33.9,30.09,WNW,298,6.0,6.0,50,0.00,,,0.00,671.00,VWS V14.01,2013-05-13 15:06:00,
2013-05-13 11:11:00,52.2,33.6,30.09,NW,320,9.0,12.0,49,0.00,,,0.00,707.00,VWS V14.01,2013-05-13 15:11:00,
2013-05-13 11:17:00,52.3,32.7,30.09,NW,310,11.0,11.0,47,0.00,,,0.00,745.00,VWS V14.01,2013-05-13 15:17:00,
2013-05-13 11:22:00,52.2,31.5,30.09,NW,325,12.0,13.0,45,0.00,,,0.00,842.00,VWS V14.01,2013-05-13 15:22:00,
2013-05-13 11:27:00,51.8,30.0,30.08,WNW,288,2.0,6.0,43,0.00,,,0.00,237.00,VWS V14.01,2013-05-13 15:27:00,
2013-05-13 11:32:00,52.2,32.1,30.09,NW,310,6.0,11.0,46,0.00,,,0.00,1016.00,VWS V14.01,2013-05-13 15:32:00,
2013-05-13 11:37:00,52.3,32.7,30.09,North,351,9.0,13.0,47,0.00,,,0.00,269.00,VWS V14.01,2013-05-13 15:37:00,
2013-05-13 11:42:00,51.8,31.1,30.09,NW,324,7.0,14.0,45,0.00,,,0.00,309.00,VWS V14.01,2013-05-13 15:42:00,
2013-05-13 11:47:00,51.7,31.1,30.09,North,355,3.0,9.0,45,0.00,,,0.00,371.00,VWS V14.01,2013-05-13 15:47:00,
2013-05-13 11:52:00,51.6,31.5,30.08,WNW,290,2.0,5.0,46,0.00,,,0.00,325.00,VWS V14.01,2013-05-13 15:52:00,
2013-05-13 11:57:00,51.5,31.4,30.09,NNW,342,5.0,12.0,46,0.00,,,0.00,302.00,VWS V14.01,2013-05-13 15:57:00,
2013-05-13 12:02:00,51.8,31.7,30.08,NW,319,8.0,8.0,46,0.00,,,0.00,251.00,VWS V14.01,2013-05-13 16:02:00,
2013-05-13 12:07:00,52.6,33.0,30.08,WNW,290,7.0,7.0,47,0.00,,,0.00,886.00,VWS V14.01,2013-05-13 16:07:00,
2013-05-13 12:12:00,53.3,31.4,30.08,ENE,64,0.0,7.0,43,0.00,,,0.00,1016.00,VWS V14.01,2013-05-13 16:12:00,
2013-05-13 12:18:00,54.4,33.5,30.08,North,360,4.0,8.0,45,0.00,,,0.00,1041.00,VWS V14.01,2013-05-13 16:18:00,
2013-05-13 12:23:00,54.8,32.8,30.08,NE,49,4.0,10.0,43,0.00,,,0.00,1144.00,VWS V14.01,2013-05-13 16:23:00,
2013-05-13 12:28:00,54.8,33.9,30.08,WSW,253,0.0,9.0,45,0.00,,,0.00,1085.00,VWS V14.01,2013-05-13 16:28:00,
2013-05-13 12:33:00,54.7,31.5,30.07,NNW,338,5.0,9.0,41,0.00,,,0.00,1107.00,VWS V14.01,2013-05-13 16:33:00,
2013-05-13 12:38:00,54.8,34.4,30.07,WNW,299,5.0,9.0,46,0.00,,,0.00,1039.00,VWS V14.01,2013-05-13 16:38:00,
2013-05-13 12:43:00,54.9,30.4,30.07,WNW,298,2.0,13.0,39,0.00,,,0.00,257.00,VWS V14.01,2013-05-13 16:43:00,
2013-05-13 12:48:00,54.5,30.1,30.07,NNW,327,3.0,7.0,39,0.00,,,0.00,323.00,VWS V14.01,2013-05-13 16:48:00,
2013-05-13 12:53:00,54.2,29.2,30.07,North,5,6.0,14.0,38,0.00,,,0.00,338.00,VWS V14.01,2013-05-13 16:53:00,
2013-05-13 12:58:00,53.9,29.5,30.06,NW,322,15.0,15.0,39,0.00,,,0.00,1099.00,VWS V14.01,2013-05-13 16:58:00,
2013-05-13 13:03:00,54.3,30.5,30.06,WNW,302,6.0,16.0,40,0.00,,,0.00,1102.00,VWS V14.01,2013-05-13 17:03:00,
2013-05-13 13:08:00,54.4,29.3,30.06,NW,306,10.0,15.0,38,0.00,,,0.00,1114.00,VWS V14.01,2013-05-13 17:08:00,
2013-05-13 13:13:00,54.2,29.2,30.06,NW,306,4.0,9.0,38,0.00,,,0.00,241.00,VWS V14.01,2013-05-13 17:13:00,
2013-05-13 13:19:00,55.2,31.3,30.06,WSW,253,0.0,12.0,40,0.00,,,0.00,1048.00,VWS V14.01,2013-05-13 17:19:00,
2013-05-13 13:24:00,55.8,29.9,30.06,North,350,13.0,16.0,37,0.00,,,0.00,1023.00,VWS V14.01,2013-05-13 17:24:00,
2013-05-13 13:29:00,55.6,28.4,30.06,NNW,339,7.0,13.0,35,0.00,,,0.00,1030.00,VWS V14.01,2013-05-13 17:29:00,
2013-05-13 13:34:00,55.9,31.3,30.06,NW,321,8.0,13.0,39,0.00,,,0.00,1051.00,VWS V14.01,2013-05-13 17:34:00,
2013-05-13 13:39:00,55.3,28.8,30.06,North,355,6.0,13.0,36,0.00,,,0.00,279.00,VWS V14.01,2013-05-13 17:39:00,
2013-05-13 13:44:00,55.4,30.9,30.06,NW,304,3.0,17.0,39,0.00,,,0.00,1041.00,VWS V14.01,2013-05-13 17:44:00,
2013-05-13 13:49:00,56.0,29.4,30.06,NW,309,4.0,17.0,36,0.00,,,0.00,1136.00,VWS V14.01,2013-05-13 17:49:00,
2013-05-13 13:54:00,55.7,29.2,30.06,NNW,330,8.0,17.0,36,0.00,,,0.00,1129.00,VWS V14.01,2013-05-13 17:54:00,
2013-05-13 13:59:00,55.5,30.3,30.06,NW,304,10.0,15.0,38,0.00,,,0.00,1107.00,VWS V14.01,2013-05-13 17:59:00,
2013-05-13 14:04:00,55.2,31.3,30.06,NNW,332,12.0,12.0,40,0.00,,,0.00,353.00,VWS V14.01,2013-05-13 18:04:00,
2013-05-13 14:09:00,55.9,30.0,30.05,WNW,300,2.0,13.0,37,0.00,,,0.00,1081.00,VWS V14.01,2013-05-13 18:09:00,
2013-05-13 14:15:00,57.3,31.9,30.05,NNE,25,9.0,10.0,38,0.00,,,0.00,1104.00,VWS V14.01,2013-05-13 18:15:00,
2013-05-13 14:20:00,58.0,31.9,30.05,North,360,9.0,16.0,37,0.00,,,0.00,1136.00,VWS V14.01,2013-05-13 18:20:00,
2013-05-13 14:25:00,56.9,28.1,30.05,WNW,302,8.0,17.0,33,0.00,,,0.00,237.00,VWS V14.01,2013-05-13 18:25:00,
2013-05-13 14:30:00,55.5,28.3,30.05,NW,326,8.0,21.0,35,0.00,,,0.00,1027.00,VWS V14.01,2013-05-13 18:30:00,
2013-05-13 14:35:00,55.9,29.4,30.05,NNW,327,5.0,17.0,36,0.00,,,0.00,1053.00,VWS V14.01,2013-05-13 18:35:00,
2013-05-13 14:40:00,56.9,30.9,30.05,NNW,345,8.0,14.0,37,0.00,,,0.00,1130.00,VWS V14.01,2013-05-13 18:40:00,
2013-05-13 14:45:00,56.9,28.8,30.05,NNW,328,5.0,17.0,34,0.00,,,0.00,385.00,VWS V14.01,2013-05-13 18:45:00,
2013-05-13 14:50:00,56.5,27.8,30.05,NW,310,17.0,18.0,33,0.00,,,0.00,1127.00,VWS V14.01,2013-05-13 18:50:00,
2013-05-13 14:55:00,56.2,30.3,30.05,WNW,298,9.0,17.0,37,0.00,,,0.00,1053.00,VWS V14.01,2013-05-13 18:55:00,
2013-05-13 15:00:00,56.1,28.1,30.04,NW,307,4.0,12.0,34,0.00,,,0.00,237.00,VWS V14.01,2013-05-13 19:00:00,
2013-05-13 15:05:00,55.5,28.3,30.04,NNW,340,5.0,18.0,35,0.00,,,0.00,294.00,VWS V14.01,2013-05-13 19:05:00,
2013-05-13 15:10:00,55.6,29.8,30.04,NNW,331,8.0,15.0,37,0.00,,,0.00,1028.00,VWS V14.01,2013-05-13 19:10:00,
2013-05-13 15:15:00,55.7,27.8,30.05,NW,317,6.0,6.0,34,0.00,,,0.00,390.00,VWS V14.01,2013-05-13 19:15:00,
2013-05-13 15:21:00,56.2,28.9,30.04,SSW,206,5.0,9.0,35,0.00,,,0.00,795.00,VWS V14.01,2013-05-13 19:21:00,
2013-05-13 15:26:00,56.1,28.8,30.04,NNW,327,5.0,5.0,35,0.00,,,0.00,206.00,VWS V14.01,2013-05-13 19:26:00,
2013-05-13 15:31:00,55.7,29.2,30.04,NW,313,9.0,9.0,36,0.00,,,0.00,315.00,VWS V14.01,2013-05-13 19:31:00,
2013-05-13 15:36:00,55.1,28.0,30.04,NNW,331,8.0,13.0,35,0.00,,,0.00,276.00,VWS V14.01,2013-05-13 19:36:00,
2013-05-13 15:41:00,54.8,28.4,30.04,NNW,346,3.0,7.0,36,0.00,,,0.00,325.00,VWS V14.01,2013-05-13 19:41:00,
2013-05-13 15:46:00,54.8,28.4,30.04,NW,325,10.0,13.0,36,0.00,,,0.00,345.00,VWS V14.01,2013-05-13 19:46:00,
2013-05-13 15:51:00,55.3,29.5,30.04,NNW,334,9.0,12.0,37,0.00,,,0.00,998.00,VWS V14.01,2013-05-13 19:51:00,
2013-05-13 15:56:00,55.4,27.5,30.04,North,349,10.0,11.0,34,0.00,,,0.00,220.00,VWS V14.01,2013-05-13 19:56:00,
2013-05-13 16:01:00,54.9,29.1,30.04,NNW,338,6.0,9.0,37,0.00,,,0.00,306.00,VWS V14.01,2013-05-13 20:01:00,
2013-05-13 16:06:00,55.3,30.1,30.04,NNW,336,7.0,10.0,38,0.00,,,0.00,1041.00,VWS V14.01,2013-05-13 20:06:00,
2013-05-13 16:11:00,55.9,29.4,30.04,WNW,295,4.0,15.0,36,0.00,,,0.00,323.00,VWS V14.01,2013-05-13 20:11:00,
2013-05-13 16:17:00,56.0,29.4,30.03,NNW,340,7.0,13.0,36,0.00,,,0.00,921.00,VWS V14.01,2013-05-13 20:17:00,
2013-05-13 16:22:00,56.2,28.9,30.03,NW,318,10.0,19.0,35,0.00,,,0.00,800.00,VWS V14.01,2013-05-13 20:22:00,
2013-05-13 16:27:00,56.2,31.6,30.04,NW,313,15.0,15.0,39,0.00,,,0.00,791.00,VWS V14.01,2013-05-13 20:27:00,
2013-05-13 16:32:00,56.1,28.8,30.03,NW,313,11.0,13.0,35,0.00,,,0.00,329.00,VWS V14.01,2013-05-13 20:32:00,
2013-05-13 16:37:00,55.8,29.9,30.04,NW,323,9.0,20.0,37,0.00,,,0.00,788.00,VWS V14.01,2013-05-13 20:37:00,
2013-05-13 16:42:00,56.0,29.4,30.03,NNW,336,6.0,17.0,36,0.00,,,0.00,738.00,VWS V14.01,2013-05-13 20:42:00,
2013-05-13 16:47:00,56.1,29.5,30.04,NNW,348,8.0,10.0,36,0.00,,,0.00,223.00,VWS V14.01,2013-05-13 20:47:00,
2013-05-13 16:52:00,56.0,30.1,30.04,NNW,334,2.0,12.0,37,0.00,,,0.00,221.00,VWS V14.01,2013-05-13 20:52:00,
2013-05-13 16:57:00,55.6,29.8,30.04,NW,310,5.0,12.0,37,0.00,,,0.00,287.00,VWS V14.01,2013-05-13 20:57:00,
2013-05-13 17:02:00,55.3,29.5,30.04,NW,318,7.0,15.0,37,0.00,,,0.00,279.00,VWS V14.01,2013-05-13 21:02:00,
2013-05-13 17:07:00,55.1,28.6,30.04,North,355,9.0,19.0,36,0.00,,,0.00,596.00,VWS V14.01,2013-05-13 21:07:00,
2013-05-13 17:12:00,55.4,30.2,30.03,WNW,297,5.0,7.0,38,0.00,,,0.00,559.00,VWS V14.01,2013-05-13 21:12:00,
2013-05-13 17:18:00,55.8,29.9,30.03,North,355,8.0,17.0,37,0.00,,,0.00,550.00,VWS V14.01,2013-05-13 21:18:00,
2013-05-13 17:23:00,55.8,29.3,30.03,WNW,291,4.0,13.0,36,0.00,,,0.00,545.00,VWS V14.01,2013-05-13 21:23:00,
2013-05-13 17:28:00,56.0,28.8,30.03,NNW,332,10.0,15.0,35,0.00,,,0.00,88.00,VWS V14.01,2013-05-13 21:28:00,
2013-05-13 17:33:00,55.7,29.2,30.03,NNW,344,7.0,14.0,36,0.00,,,0.00,111.00,VWS V14.01,2013-05-13 21:33:00,
2013-05-13 17:38:00,55.1,28.6,30.03,NW,319,8.0,17.0,36,0.00,,,0.00,111.00,VWS V14.01,2013-05-13 21:38:00,
2013-05-13 17:43:00,55.0,29.2,30.03,WNW,300,13.0,15.0,37,0.00,,,0.00,508.00,VWS V14.01,2013-05-13 21:43:00,
2013-05-13 17:48:00,55.2,28.7,30.03,WNW,302,9.0,18.0,36,0.00,,,0.00,88.00,VWS V14.01,2013-05-13 21:48:00,
2013-05-13 17:53:00,54.9,28.5,30.03,NNW,340,10.0,14.0,36,0.00,,,0.00,480.00,VWS V14.01,2013-05-13 21:53:00,
2013-05-13 17:58:00,54.9,29.8,30.04,NNW,329,8.0,15.0,38,0.00,,,0.00,466.00,VWS V14.01,2013-05-13 21:58:00,
2013-05-13 18:03:00,55.1,29.3,30.03,NW,304,8.0,13.0,37,0.00,,,0.00,450.00,VWS V14.01,2013-05-13 22:03:00,
2013-05-13 18:08:00,55.2,29.4,30.04,NNW,334,8.0,10.0,37,0.00,,,0.00,404.00,VWS V14.01,2013-05-13 22:08:00,
2013-05-13 18:14:00,55.1,29.3,30.04,North,349,5.0,14.0,37,0.00,,,0.00,392.00,VWS V14.01,2013-05-13 22:14:00,
2013-05-13 18:19:00,55.1,29.3,30.03,North,360,8.0,16.0,37,0.00,,,0.00,360.00,VWS V14.01,2013-05-13 22:19:00,
2013-05-13 18:24:00,55.2,28.7,30.03,NNW,333,7.0,18.0,36,0.00,,,0.00,338.00,VWS V14.01,2013-05-13 22:24:00,
2013-05-13 18:29:00,55.3,30.1,30.03,NW,326,6.0,11.0,38,0.00,,,0.00,316.00,VWS V14.01,2013-05-13 22:29:00,
2013-05-13 18:34:00,55.3,29.5,30.03,North,349,4.0,15.0,37,0.00,,,0.00,299.00,VWS V14.01,2013-05-13 22:34:00,
2013-05-13 18:39:00,55.3,30.1,30.04,NW,323,2.0,10.0,38,0.00,,,0.00,281.00,VWS V14.01,2013-05-13 22:39:00,
2013-05-13 18:44:00,55.2,28.7,30.03,NW,311,6.0,14.0,36,0.00,,,0.00,267.00,VWS V14.01,2013-05-13 22:44:00,
2013-05-13 18:49:00,55.0,28.6,30.04,NW,314,13.0,14.0,36,0.00,,,0.00,253.00,VWS V14.01,2013-05-13 22:49:00,
2013-05-13 18:54:00,54.8,29.7,30.04,NNE,18,6.0,11.0,38,0.00,,,0.00,236.00,VWS V14.01,2013-05-13 22:54:00,
2013-05-13 18:59:00,54.8,30.3,30.04,North,355,9.0,9.0,39,0.00,,,0.00,211.00,VWS V14.01,2013-05-13 22:59:00,
2013-05-13 19:04:00,54.7,29.0,30.04,NNW,333,4.0,10.0,37,0.00,,,0.00,193.00,VWS V14.01,2013-05-13 23:04:00,
2013-05-13 19:10:00,54.6,28.9,30.04,NW,321,3.0,10.0,37,0.00,,,0.00,171.00,VWS V14.01,2013-05-13 23:10:00,
2013-05-13 19:15:00,54.5,30.1,30.04,NNW,346,4.0,12.0,39,0.00,,,0.00,148.00,VWS V14.01,2013-05-13 23:15:00,
2013-05-13 19:20:00,54.2,28.5,30.04,NNW,327,7.0,14.0,37,0.00,,,0.00,130.00,VWS V14.01,2013-05-13 23:20:00,
2013-05-13 19:25:00,53.9,28.2,30.04,NNE,15,4.0,13.0,37,0.00,,,0.00,109.00,VWS V14.01,2013-05-13 23:25:00,
2013-05-13 19:30:00,53.8,29.4,30.05,North,360,2.0,6.0,39,0.00,,,0.00,100.00,VWS V14.01,2013-05-13 23:30:00,
2013-05-13 19:35:00,53.6,29.3,30.05,NNW,344,4.0,9.0,39,0.00,,,0.00,63.00,VWS V14.01,2013-05-13 23:35:00,
2013-05-13 19:40:00,53.4,29.1,30.05,NW,324,3.0,9.0,39,0.00,,,0.00,62.00,VWS V14.01,2013-05-13 23:40:00,
2013-05-13 19:45:00,53.2,29.5,30.05,NNW,345,0.0,7.0,40,0.00,,,0.00,49.00,VWS V14.01,2013-05-13 23:45:00,
2013-05-13 19:50:00,52.9,29.2,30.05,NNW,338,6.0,7.0,40,0.00,,,0.00,18.00,VWS V14.01,2013-05-13 23:50:00,
2013-05-13 19:55:00,52.5,29.5,30.05,North,355,0.0,6.0,41,0.00,,,0.00,23.00,VWS V14.01,2013-05-13 23:55:00,
2013-05-13 20:00:00,52.2,29.8,30.06,NNW,347,0.0,3.0,42,0.00,,,0.00,14.00,VWS V14.01,2013-05-14 00:00:00,
2013-05-13 20:05:00,51.9,30.1,30.06,NNW,348,0.0,1.0,43,0.00,,,0.00,11.00,VWS V14.01,2013-05-14 00:05:00,
2013-05-13 20:10:00,51.5,30.3,30.06,NNW,348,0.0,1.0,44,0.00,,,0.00,7.00,VWS V14.01,2013-05-14 00:10:00,
2013-05-13 20:15:00,51.2,30.0,30.06,NNW,348,0.0,0.0,44,0.00,,,0.00,5.00,VWS V14.01,2013-05-14 00:15:00,
2013-05-13 20:21:00,50.8,30.2,30.06,NNW,348,0.0,1.0,45,0.00,,,0.00,0.00,VWS V14.01,2013-05-14 00:21:00,
2013-05-13 20:26:00,50.5,30.0,30.07,NNW,348,0.0,0.0,45,0.00,,,0.00,0.00,VWS V14.01,2013-05-14 00:26:00,
2013-05-13 20:31:00,50.2,30.2,30.07,NNW,348,0.0,0.0,46,0.00,,,0.00,0.00,VWS V14.01,2013-05-14 00:31:00,
2013-05-13 20:36:00,49.9,30.5,30.07,NNW,348,0.0,0.0,47,0.00,,,0.00,0.00,VWS V14.01,2013-05-14 00:36:00,
2013-05-13 20:41:00,49.6,30.2,30.07,NNW,348,0.0,0.0,47,0.00,,,0.00,0.00,VWS V14.01,2013-05-14 00:41:00,
2013-05-13 20:46:00,49.4,30.5,30.08,NNW,348,0.0,0.0,48,0.00,,,0.00,0.00,VWS V14.01,2013-05-14 00:46:00,
2013-05-13 20:51:00,49.1,30.8,30.07,NNW,348,0.0,0.0,49,0.00,,,0.00,0.00,VWS V14.01,2013-05-14 00:51:00,
2013-05-13 20:56:00,48.8,31.0,30.08,NNW,348,0.0,0.0,50,0.00,,,0.00,0.00,VWS V14.01,2013-05-14 00:56:00,
2013-05-13 21:01:00,48.5,30.7,30.08,NNW,348,0.0,0.0,50,0.00,,,0.00,0.00,VWS V14.01,2013-05-14 01:01:00,
2013-05-13 21:06:00,48.1,30.8,30.08,NNW,348,0.0,0.0,51,0.00,,,0.00,0.00,VWS V14.01,2013-05-14 01:06:00,
2013-05-13 21:11:00,47.8,30.6,30.09,NNW,348,0.0,0.0,51,0.00,,,0.00,0.00,VWS V14.01,2013-05-14 01:11:00,
2013-05-13 21:20:00,47.2,31.0,30.09,NNW,348,0.0,0.0,53,0.00,,,0.00,0.00,VWS V14.01,2013-05-14 01:20:00,
2013-05-13 21:25:00,46.9,30.7,30.10,NNW,348,0.0,0.0,53,0.00,,,0.00,0.00,VWS V14.01,2013-05-14 01:25:00,
2013-05-13 21:30:00,46.6,30.9,30.10,NNW,348,0.0,1.0,54,0.00,,,0.00,0.00,VWS V14.01,2013-05-14 01:30:00,
2013-05-13 21:35:00,46.4,31.1,30.10,NNW,348,0.0,0.0,55,0.00,,,0.00,0.00,VWS V14.01,2013-05-14 01:35:00,
2013-05-13 21:40:00,46.3,31.5,30.11,NNW,348,0.0,0.0,56,0.00,,,0.00,0.00,VWS V14.01,2013-05-14 01:40:00,
2013-05-13 21:45:00,46.0,31.2,30.11,NNW,348,0.0,0.0,56,0.00,,,0.00,0.00,VWS V14.01,2013-05-14 01:45:00,
2013-05-13 21:50:00,45.8,31.5,30.11,NNW,348,0.0,0.0,57,0.00,,,0.00,0.00,VWS V14.01,2013-05-14 01:50:00,
2013-05-13 21:55:00,45.4,31.1,30.11,NNW,348,0.0,0.0,57,0.00,,,0.00,0.00,VWS V14.01,2013-05-14 01:55:00,
2013-05-13 22:00:00,45.0,30.7,30.12,NNW,348,0.0,0.0,57,0.00,,,0.00,0.00,VWS V14.01,2013-05-14 02:00:00,
2013-05-13 22:05:00,44.6,30.3,30.12,NNW,348,0.0,0.0,57,0.00,,,0.00,0.00,VWS V14.01,2013-05-14 02:05:00,
2013-05-13 22:10:00,44.2,30.4,30.12,NNW,348,0.0,0.0,58,0.00,,,0.00,0.00,VWS V14.01,2013-05-14 02:10:00,
2013-05-13 22:15:00,43.7,30.3,30.12,NNW,348,0.0,0.0,59,0.00,,,0.00,0.00,VWS V14.01,2013-05-14 02:15:00,
2013-05-13 22:21:00,43.2,30.3,30.12,NNW,348,0.0,0.0,60,0.00,,,0.00,0.00,VWS V14.01,2013-05-14 02:21:00,
2013-05-13 22:26:00,42.8,31.1,30.12,NNW,348,0.0,0.0,63,0.00,,,0.00,0.00,VWS V14.01,2013-05-14 02:26:00,
2013-05-13 22:31:00,42.5,30.8,30.13,NNW,348,0.0,0.0,63,0.00,,,0.00,0.00,VWS V14.01,2013-05-14 02:31:00,
2013-05-13 22:36:00,42.2,30.9,30.13,NNW,348,0.0,0.0,64,0.00,,,0.00,0.00,VWS V14.01,2013-05-14 02:36:00,
2013-05-13 22:41:00,41.9,31.8,30.13,NNW,348,0.0,0.0,67,0.00,,,0.00,0.00,VWS V14.01,2013-05-14 02:41:00,
2013-05-13 22:46:00,41.5,31.7,30.13,NNW,348,0.0,0.0,68,0.00,,,0.00,0.00,VWS V14.01,2013-05-14 02:46:00,
2013-05-13 22:51:00,41.3,31.9,30.13,NNW,348,0.0,0.0,69,0.00,,,0.00,0.00,VWS V14.01,2013-05-14 02:51:00,
2013-05-13 22:56:00,41.0,32.0,30.13,NNW,348,0.0,0.0,70,0.00,,,0.00,0.00,VWS V14.01,2013-05-14 02:56:00,
2013-05-13 23:01:00,40.7,32.0,30.14,NNW,348,0.0,0.0,71,0.00,,,0.00,0.00,VWS V14.01,2013-05-14 03:01:00,
2013-05-13 23:06:00,40.5,32.2,30.14,NNW,348,0.0,0.0,72,0.00,,,0.00,0.00,VWS V14.01,2013-05-14 03:06:00,
2013-05-13 23:11:00,40.3,32.3,30.14,NNW,348,0.0,0.0,73,0.00,,,0.00,0.00,VWS V14.01,2013-05-14 03:11:00,
2013-05-13 23:16:00,40.1,32.5,30.14,NNW,348,0.0,0.0,74,0.00,,,0.00,0.00,VWS V14.01,2013-05-14 03:16:00,
2013-05-13 23:22:00,39.9,32.3,30.14,NNW,348,0.0,0.0,74,0.00,,,0.00,0.00,VWS V14.01,2013-05-14 03:22:00,
2013-05-13 23:27:00,39.7,31.8,30.14,NNW,348,0.0,0.0,73,0.00,,,0.00,0.00,VWS V14.01,2013-05-14 03:27:00,
2013-05-13 23:32:00,39.5,32.2,30.14,NNW,348,0.0,0.0,75,0.00,,,0.00,0.00,VWS V14.01,2013-05-14 03:32:00,
2013-05-13 23:37:00,39.3,33.0,30.14,NNW,348,0.0,0.0,78,0.00,,,0.00,0.00,VWS V14.01,2013-05-14 03:37:00,
2013-05-13 23:42:00,39.1,32.8,30.14,NNW,348,0.0,0.0,78,0.00,,,0.00,0.00,VWS V14.01,2013-05-14 03:42:00,
2013-05-13 23:47:00,39.0,33.0,30.14,NNW,348,0.0,0.0,79,0.00,,,0.00,0.00,VWS V14.01,2013-05-14 03:47:00,
2013-05-13 23:52:00,38.8,32.9,30.15,NNW,348,0.0,0.0,79,0.00,,,0.00,0.00,VWS V14.01,2013-05-14 03:52:00,
2013-05-13 23:57:00,38.7,33.1,30.15,NNW,348,0.0,0.0,80,0.00,,,0.00,0.00,VWS V14.01,2013-05-14 03:57:00,